Regional Weather Roundup
Issued by NWS

Home | Current Version | Previous Version | Text Only | Print | Product List | Glossary On
Versions: 1 2 3 4 5 6 7 8 9 10 11 12 13 14 15 16 17 18 19 20 21 22 23 24 25 26 27 28 29 30 31 32 33 34 35 36 37 38 39 40 41 42 43 44 45 46 47 48 49 50
000
ASUS43 KMKX 261821
RWRWI

WISCONSIN REGIONAL WEATHER ROUNDUP
NATIONAL WEATHER SERVICE MILWAUKEE/SULLIVAN WI
1200 PM CST WED NOV 26 2014

NOTE: "FAIR" INDICATES FEW OR NO CLOUDS BELOW 12,000 FEET WITH NO
SIGNIFICANT WEATHER AND/OR OBSTRUCTIONS TO VISIBILITY.

WIZ001-002-006>008-014>016-023>028-261900-
NORTHWEST WISCONSIN

CITY           SKY/WX    TMP DP  RH WIND       PRES   REMARKS
SUPERIOR ARPT  CLOUDY    24  14  66 NW8       30.22S WCI  15
6HR MIN TEMP:  18; 6HR MAX TEMP:  24;

ASHLAND        CLOUDY    24  20  84 W5        30.19S WCI  18
6HR MIN TEMP:  18; 6HR MAX TEMP:  24; 6HR PCP:  0.01;

HAYWARD        LGT SNOW  23  15  71 N5        30.15F WCI  17
6HR MIN TEMP:  20; 6HR MAX TEMP:  23; 6HR PCP: TRACE;

SIREN          FAIR      25  13  61 N8        30.18S WCI  16
6HR MIN TEMP:  21; 6HR MAX TEMP:  25;

CUMBERLAND     LGT SNOW  25  18  74 N6        30.14F WCI  18
RICE LAKE      FAIR      24  18  75 W5        30.17F WCI  18
6HR MIN TEMP:  20; 6HR MAX TEMP:  25;

CHETEK         CLOUDY    25  16  69 NW3       30.16S
6HR MIN TEMP:  21; 6HR MAX TEMP:  25;

LADYSMITH      MIX PCPN  24  18  79 N3        30.16S
6HR MIN TEMP:  21; 6HR MAX TEMP:  24;

EAU CLAIRE     CLOUDY    25  17  72 N5        30.15F WCI  19
6HR MIN TEMP:  20; 6HR MAX TEMP:  26;

MENOMONIE      LGT SNOW  25  21  85 N6        30.17S WCI  18
6HR MIN TEMP:  22; 6HR MAX TEMP:  25;

NEW RICHMOND   LGT SNOW  25  21  83 N5        30.17S WCI  20
6HR MIN TEMP:  22; 6HR MAX TEMP:  25;

OSCEOLA        LGT SNOW  26  21  83 NE3       30.20F
6HR MIN TEMP:  23; 6HR MAX TEMP:  26;

$$

WIZ003>005-009-010-017-018-261900-
NORTH CENTRAL WISCONSIN

CITY           SKY/WX    TMP DP  RH WIND       PRES   REMARKS
MANITOWISH WTR LGT SNOW  20  17  88 W3        30.10F
6HR MIN TEMP:  15; 6HR MAX TEMP:  20;

ARBOR VITAE    LGT SNOW  22  17  83 NW3       30.10S
6HR MIN TEMP:  17; 6HR MAX TEMP:  22;

WOODRUFF       LGT SNOW  22  17  83 NW3       30.10S
6HR MIN TEMP:  17; 6HR MAX TEMP:  22;

RHINELANDER    LGT SNOW  21  15  78 W6        30.10S WCI  13
6HR MIN TEMP:  12; 6HR MAX TEMP:  21; 6HR PCP: TRACE;

EAGLE RIVER    LGT SNOW  20  15  79 CALM      30.09F
6HR MIN TEMP:  12; 6HR MAX TEMP:  20;

LAND O LAKES   LGT SNOW  22  17  82 W3        30.10S
6HR MIN TEMP:   9; 6HR MAX TEMP:  22;

PHILLIPS       LGT SNOW  21  16  81 CALM      30.11F
6HR MIN TEMP:  17; 6HR MAX TEMP:  21;

TOMAHAWK       CLOUDY    22  17  81 CALM      30.12S
6HR MIN TEMP:  15; 6HR MAX TEMP:  22;

MEDFORD        CLOUDY    23  15  72 CALM      30.10F
6HR MIN TEMP:  17; 6HR MAX TEMP:  23;

MERRILL        CLOUDY    23  17  78 W3        30.12S
6HR MIN TEMP:  15; 6HR MAX TEMP:  23;

$$

WIZ029-030-035-036-043>047-261900-
CENTRAL WISCONSIN

CITY           SKY/WX    TMP DP  RH WIND       PRES   REMARKS
WAUSAU         CLOUDY    22  18  85 CALM      30.11F
6HR MIN TEMP:  16; 6HR MAX TEMP:  23;

MOSINEE        NOT AVBL
MARSHFIELD     CLOUDY    22  16  78 S3        30.12F
6HR MIN TEMP:  17; 6HR MAX TEMP:  23;

STEVENS POINT  PTSUNNY   19  17  94 CALM      30.13F
6HR MIN TEMP:  12; 6HR MAX TEMP:  19;

WAUPACA        CLOUDY    22  20  90 CALM      30.16S FOG
6HR MIN TEMP:  11; 6HR MAX TEMP:  23;

WAUTOMA        CLOUDY    20  18  92 CALM      30.16F
6HR MIN TEMP:   5; 6HR MAX TEMP:  21;

WISC RAPIDS    FAIR      23  15  71 CALM      30.15F
6HR MIN TEMP:  15; 6HR MAX TEMP:  23;

CAMP DOUGLAS   CLOUDY    23  21  93 E5        30.13F WCI  17
$$

WIZ011>013-019>022-031-037>040-048>050-261900-
NORTHEAST WISCONSIN

CITY           SKY/WX    TMP DP  RH WIND       PRES   REMARKS
ANTIGO         CLOUDY    18  17  96 CALM      30.09F
6HR MIN TEMP:  14; 6HR MAX TEMP:  18;

SHAWANO        CLOUDY    22  20  90 CALM      30.16S
6HR MIN TEMP:  15; 6HR MAX TEMP:  22;

OCONTO         CLOUDY    22  18  85 CALM      30.16F
6HR MIN TEMP:  11; 6HR MAX TEMP:  22;

STURGEON BAY   MOSUNNY   27  18  69 CALM      30.15F
6HR MIN TEMP:  12; 6HR MAX TEMP:  27;

GREEN BAY      CLOUDY    23  17  78 N7        30.16F WCI  15
6HR MIN TEMP:  12; 6HR MAX TEMP:  24;

MANITOWOC      CLOUDY    27  22  81 NW7       30.15F WCI  19
6HR MIN TEMP:  13; 6HR MAX TEMP:  27;

APPLETON       CLOUDY    23  19  86 VRB5      30.14F WCI  17
CLINTONVILLE   CLOUDY    21  19  93 CALM      30.15F
OSHKOSH        CLOUDY    23  18  81 MISG      30.14F
6HR MIN TEMP:  11; 6HR MAX TEMP:  23;

$$

WIZ032>034-041-042-053>061-261900-
SOUTHWEST WISCONSIN

CITY           SKY/WX    TMP DP  RH WIND       PRES   REMARKS
LA CROSSE      CLOUDY    27  17  66 CALM      30.14S
6HR MIN TEMP:  20; 6HR MAX TEMP:  27;

SPARTA         CLOUDY    27  18  71 CALM      30.14F
6HR MIN TEMP:  12; 6HR MAX TEMP:  27; 6HR PCP:  0.01;

VIROQUA        FAIR      24  19  83 E7        30.08F WCI  16
6HR MIN TEMP:  15; 6HR MAX TEMP:  24;

BOSCOBEL       CLOUDY    23  18  81 N7        30.12F HAZE    WCI  15
6HR MIN TEMP:  11; 6HR MAX TEMP:  24;

PRAIRIE DU CHI CLOUDY    27  21  79 E6        30.10S WCI  21
6HR MIN TEMP:  18; 6HR MAX TEMP:  27;

PLATTEVILLE    CLOUDY    24  22  94 E12       30.08F WCI  12
6HR MIN TEMP:  14; 6HR MAX TEMP:  24;

$$

WIZ056-057-062-063-064-067-068-261900-
SOUTH CENTRAL WISCONSIN

CITY           SKY/WX    TMP DP  RH WIND       PRES   REMARKS
REEDSBURG      CLOUDY    19  17  93 S3        30.12F FOG
BARABOO/DELLS  CLOUDY    19  18  95 NE3       30.12F FOG
6HR MIN TEMP:   6; 6HR MAX TEMP:  19;

LONE ROCK      CLOUDY    25  18  74 E5        30.13F HAZE    WCI  19
6HR MIN TEMP:  11; 6HR MAX TEMP:  25;

MINERAL POINT  CLOUDY    25  23  93 E6        30.08S FOG     WCI  18
MADISON        CLOUDY    20  18  92 VRB3      30.13F FOG
6HR MIN TEMP:  11; 6HR MAX TEMP:  20;

MIDDLETON      CLOUDY    24  22  93 SE7       30.12F WCI  16
6HR MIN TEMP:  12; 6HR MAX TEMP:  24;

WATERTOWN      CLOUDY    16  15  98 CALM      30.13F FOG
6HR MIN TEMP:   8; 6HR MAX TEMP:  16;

MONROE         CLOUDY    27  25  93 E6        30.08F FOG     WCI  20
JANESVILLE     MOSUNNY   25  23  93 SE5       30.11F WCI  19
$$

WIZ051-052-058>065-066-070>072-261900-
SOUTHEAST WISCONSIN

CITY           SKY/WX    TMP DP  RH WIND       PRES   REMARKS
MILWAUKEE      PTSUNNY   28  19  69 CALM      30.13F
6HR MIN TEMP:  14; 6HR MAX TEMP:  30;

WAUKESHA       MOSUNNY   21  21 100 W3        30.13F
MILWAUKEE/TIMM NOT AVBL
RACINE         CLOUDY    27  21  78 CALM      30.14F
6HR MIN TEMP:  16; 6HR MAX TEMP:  27;

BURLINGTON     PTSUNNY   22  20  89 CALM      30.12F FOG
6HR MIN TEMP:  12; 6HR MAX TEMP:  22;

KENOSHA        CLOUDY    25  21  85 W3        30.13F FOG
6HR MIN TEMP:  15; 6HR MAX TEMP:  25;

FOND DU LAC    CLOUDY    23  18  81 VRB3      30.14F
6HR MIN TEMP:   9; 6HR MAX TEMP:  23; 6HR PCP: TRACE;

SHEBOYGAN      PTSUNNY   25  19  78 N7        30.14F WCI  17
6HR MIN TEMP:  18; 6HR MAX TEMP:  26;

WEST BEND      PTSUNNY   27  19  74 CALM      30.12S
JUNEAU         PTSUNNY   19  17  90 CALM      30.14S FOG
6HR MIN TEMP:  11; 6HR MAX TEMP:  19;

$$

LSZ147-162-261900-
LAKE SUPERIOR

STATION/POSITION TIME  TEMP    WIND        PRES    WAVE
                       AIR SEA DIR/SP/G            HT/PER
                 (UTC) (F)     (DEG/KT/KT) (MB)    (FT/S)
DEVILS ISLAND    1800   24     360/ 14/ 16 1023.3F
PORT WING        1740   24     330/  7/ 12 1022.7F
SAXON HARBOR     1700   23     230/  4/  7 1022.0S
$$

LMZ867-665-643>646-261900-
LAKE MICHIGAN

STATION/POSITION TIME  TEMP    WIND        PRES    WAVE
                       AIR SEA DIR/SP/G            HT/PER
                 (UTC) (F)     (DEG/KT/KT) (MB)    (FT/S)


USA.gov is the U.S. government's official web portal to all federal, state and local government web resources and services.